STARLINK-35807, 66358

Orbit data source: Space-Track

STARLINK-35807, 66358 is a payload satellite owned by SpaceX/Seattle (US) in LEO that was launched on Thu, 06 Nov 2025 UTC via an FALCON 9 launch vehicle from the Air Force Western Test Range (AFWTR). Payload-class satellites include a variety of spacecraft equipped with specific instruments for various scientific and technological missions. These include communications satellites like Starlink; space stations such as the ISS; scientific satellites like the Hubble; Earth observation satellites from companies like Planet Labs, Umbra, and HawkEye 360; GPS; miniature CubeSats for education and research; and military/defense satellites.

Loading next visibility...
Identifier
66358, 2025-254L
Orbit
LEO
Country
Flag of USUS
Related business
Manufacturer
SpaceX/Seattle
Mission
Operational Commercial Communications
Bus & Motor
STARLINK V2MO, Unknown motor
Mass
575 kg wet, ~530 kg dry
Launch date (UTC)
2025-11-06 (7 months ago)
Launch vehicle
FALCON 9
Launch site
Air Force Western Test Range (AFWTR)
Object type
Payload
Rocket body
Debris
Shape & HBR
Box + 2 Pan, 17.7 m
Radar Cross Section
36.964 m², Large (>1 m²)

Expand to show TLE details & history
Last TLE update: 2 days ago

TLE from 2 days ago
0 STARLINK-35807
1 66358U 25254L   26170.27138066  .00018808  00000-0  61602-3 0  9998
2 66358  53.1595 120.2361 0000992  97.1851 262.9264 15.31715280 34533
Epoch: 2026-06-19T06:30Z
TLE epoch observation values (Epoch: 2026-06-19T06:30:47.289Z)
Latitude
0.00006°
Longitude
115.03636°
Altitude
471.678 km
Speed
7.631 km/s
True Right ascension
08h 00m 56s
True Declination
0° 00' 00"
Sunlit
Object was in daylight at epoch
Visualization orbit readout
Latitude
Unknown
Longitude
Unknown
Altitude
Unknown
Speed
Unknown
Apparent Right ascension
Unknown
Apparent Declination
Unknown
Sunlit
N/A
Visualization observer readout
Local Sidereal Time
07:16:53
Azimuth
Unknown
Elevation
Unknown
Doppler factor
Unknown
Orbital elements
Apogee altitude
471.631 km
Perigee altitude
470.272 km
Semi-major axis
6,849.088 km
Eccentricity
0.0001
Inclination
53.1595°
RAAN
120.2361°
Arg. of periapsis
97.1851°
True anomaly
262.91512°
Mean anomaly
262.9264°
Eccentric anomaly
262.92076°
Mean motion
3.82908 °/min
Orbital period
94.02 mins
BSTAR
0.00061602
Loading maneuver chart data...
Computing Atmospheric mass density...
Loading historical data...
Loading historical data...
Loading historical data...
Loading historical data...
Loading historical data...
Loading historical data...
Loading historical data...

Documentation

Showing up to 5 results
|